546  
ASUS41 KRLX 222010  
RWRRLX  
REGIONAL WEATHER ROUNDUP  
NATIONAL WEATHER SERVICE CHARLESTON WV  
400 PM EDT MON JUL 22 2019  
 
NOTE: "FAIR" INDICATES FEW OR NO CLOUDS BELOW 12,000 FEET WITH NO  
SIGNIFICANT WEATHER AND/OR S TO VISIBILITY
.  
 
WVZ003-222100-  
NORTHERN PANHANDLE OF WEST VIRGINIA  
 
CITY SKY/WX TMP DP RH WIND PRES REMARKS
 
WHEELING PTSUNNY 68 63 84 N8 29.90R  

 
 
WVZ009-222100-  
NORTHWEST WEST VIRGINIA  
 
CITY SKY/WX TMP DP RH WIND PRES REMARKS
 
PARKERSBURG RAIN 69 67 93 N7G18 29.89S FOG  

 
 
WVZ006-222100-  
WESTERN WEST VIRGINIA  
 
CITY SKY/WX TMP DP RH WIND PRES REMARKS
 
HUNTINGTON CLOUDY 76 72 87 W8 29.86F  

 
 
WVZ015-222100-  
WEST CENTRAL WEST VIRGINIA  
 
CITY SKY/WX TMP DP RH WIND PRES REMARKS
 
CHARLESTON LGT RAIN 76 74 93 SW9 29.87F  

 
 
WVZ022-031-222100-  
NORTH CENTRAL WEST VIRGINIA  
 
CITY SKY/WX TMP DP RH WIND PRES REMARKS
 
MORGANTOWN CLOUDY 78 73 84 SW6 29.85F  
CLARKSBURG PTSUNNY 80 70 71 SW13 29.84F  
BUCKHANNON CLOUDY 77 72 83 W10 29.88F  

 
 
WVZ025-035-042-045-222100-  
SOUTHERN WEST VIRGINIA  
 
CITY SKY/WX TMP DP RH WIND PRES REMARKS
 
BECKLEY CLOUDY 71 67 87 SW9G18 29.97F  
LOGAN PTSUNNY 73 73 100 S8 29.90F  
PINEVILLE CLOUDY 78 70 78 MISG 29.97F  
BLUEFIELD LGT RAIN 67 65 93 W10 29.99F  
LEWISBURG FAIR 73 69 87 SW9 29.96F  

 
 
WVZ047-222100-  
NORTHERN MOUNTAINS OF WEST VIRGINIA  
 
CITY SKY/WX TMP DP RH WIND PRES REMARKS
 
ELKINS CLOUDY 78 68 71 W5 29.90F  

 
 
WVZ052-222100-  
EASTERN PANHANDLE OF WEST VIRGINIA  
 
CITY SKY/WX TMP DP RH WIND PRES REMARKS
 
MARTINSBURG FAIR 74 71 91 S6 29.80S  
PETERSBURG FAIR 81 71 71 W3 29.82F  

 
 
SOUTHEAST OHIO/NORTHEAST KENTUCKY  
 
CITY SKY/WX TMP DP RH WIND PRES REMARKS
 
ATHENS CLOUDY 71 71 100 N10G18 29.86S  
ASHLAND CLOUDY 78 74 87 W6 29.85F  

 
 
 
CLICK HERE TO GO TO PREVIOUS BULLETINS.

The Nexlab WV Page
The Nexlab OH Page
The Nexlab KY Page
The Nexlab VA Page Main Text Page